When you browse on this site, cookies collect data to enhance your experience and personalize the content and advertising you see.
Visit our Privacy Policy to learn more. By continuing to use the site, you agree to this use of cookies and data.
  • în România
  • Lista ţărilor
  • Pe 7 zile
  • Temperatura apei
  • Hartă satelitară
  • Meteo pe hartă
  • Widget-uri
  • user-avatar
    Intrare

    Meteo pe oră la Budziejowice

    Astăzi, 20 Mai, Luni

    Timp Temperatura Precipitaţii Vânt Presiune Umiditate
    00:00 +14°C° 0 mm 2 m/s 734 mmHg 92%
    01:00 +14°C° 0 mm 2 m/s 734 mmHg 92%
    02:00 +14°C° 0 mm 2 m/s 733 mmHg 93%
    03:00 +14°C° 0 mm 2 m/s 733 mmHg 93%
    04:00 +14°C° 0 mm 2 m/s 733 mmHg 94%
    05:00 +14°C° 0 mm 3 m/s 733 mmHg 90%
    06:00 +17°C° 0 mm 4 m/s 733 mmHg 86%
    07:00 +19°C° 0 mm 5 m/s 733 mmHg 78%
    08:00 +20°C° 0 mm 5 m/s 733 mmHg 72%
    09:00 +22°C° 0 mm 5 m/s 733 mmHg 67%
    10:00 +23°C° 0 mm 6 m/s 734 mmHg 61%
    11:00 +23°C° 0 mm 5 m/s 734 mmHg 58%
    12:00 +23°C° 0 mm 5 m/s 734 mmHg 55%
    13:00 +23°C° 0 mm 4 m/s 735 mmHg 56%
    14:00 +24°C° 0 mm 3 m/s 735 mmHg 57%
    15:00 +24°C° 0 mm 3 m/s 735 mmHg 59%
    16:00 +22°C° 0 mm 3 m/s 735 mmHg 60%
    17:00 +21°C° 0.1 mm 3 m/s 734 mmHg 66%
    18:00 +19°C° 0.1 mm 3 m/s 734 mmHg 72%
    19:00 +18°C° 0.1 mm 3 m/s 734 mmHg 78%
    20:00 +16°C° 0 mm 3 m/s 734 mmHg 80%
    21:00 +15°C° 0 mm 2 m/s 734 mmHg 83%
    22:00 +14°C° 0 mm 2 m/s 734 mmHg 85%
    23:00 +14°C° 0 mm 1 m/s 734 mmHg 85%

    Mâine, 21 Mai, Marţi

    Timp Temperatura Precipitaţii Vânt Presiune Umiditate
    00:00 +13°C° 0 mm 1 m/s 734 mmHg 85%
    01:00 +13°C° 0 mm 1 m/s 734 mmHg 86%
    02:00 +12°C° 0 mm 1 m/s 734 mmHg 86%
    03:00 +12°C° 0 mm 1 m/s 734 mmHg 86%
    04:00 +12°C° 0 mm 2 m/s 734 mmHg 87%
    05:00 +13°C° 0 mm 2 m/s 734 mmHg 84%
    06:00 +15°C° 0 mm 2 m/s 734 mmHg 80%
    07:00 +16°C° 0 mm 2 m/s 734 mmHg 77%
    08:00 +17°C° 0.3 mm 2 m/s 734 mmHg 76%
    09:00 +18°C° 0.3 mm 3 m/s 734 mmHg 74%
    10:00 +19°C° 0.3 mm 3 m/s 734 mmHg 73%
    11:00 +19°C° 1.3 mm 3 m/s 733 mmHg 75%
    12:00 +18°C° 1.3 mm 3 m/s 733 mmHg 77%
    13:00 +18°C° 1.3 mm 3 m/s 733 mmHg 80%
    14:00 +18°C° 1.3 mm 3 m/s 733 mmHg 81%
    15:00 +18°C° 1.3 mm 3 m/s 732 mmHg 83%
    16:00 +17°C° 1.3 mm 3 m/s 732 mmHg 85%
    17:00 +17°C° 1 mm 3 m/s 732 mmHg 86%
    18:00 +15°C° 1 mm 4 m/s 732 mmHg 86%
    19:00 +15°C° 1 mm 5 m/s 732 mmHg 87%
    20:00 +15°C° 1.2 mm 6 m/s 732 mmHg 88%
    21:00 +15°C° 1.2 mm 6 m/s 732 mmHg 89%
    22:00 +14°C° 1.2 mm 7 m/s 732 mmHg 90%
    23:00 +14°C° 0.9 mm 7 m/s 732 mmHg 91%

    Poimâine, 22 Mai, Miercuri

    Timp Temperatura Precipitaţii Vânt Presiune Umiditate
    00:00 +14°C° 0.9 mm 7 m/s 732 mmHg 91%
    01:00 +14°C° 0.9 mm 7 m/s 733 mmHg 92%
    02:00 +14°C° 0.8 mm 7 m/s 733 mmHg 92%
    03:00 +13°C° 0.8 mm 6 m/s 733 mmHg 92%
    04:00 +13°C° 0.8 mm 6 m/s 733 mmHg 91%
    05:00 +13°C° 0.6 mm 6 m/s 733 mmHg 91%
    06:00 +14°C° 0.6 mm 6 m/s 733 mmHg 91%
    07:00 +14°C° 0.6 mm 6 m/s 733 mmHg 90%
    08:00 +14°C° 0.5 mm 6 m/s 733 mmHg 90%
    09:00 +14°C° 0.5 mm 5 m/s 734 mmHg 90%
    10:00 +14°C° 0.5 mm 4 m/s 734 mmHg 90%
    11:00 +14°C° 1 mm 4 m/s 734 mmHg 91%
    12:00 +14°C° 1 mm 3 m/s 734 mmHg 91%
    13:00 +14°C° 1 mm 3 m/s 734 mmHg 92%
    14:00 +16°C° 0.5 mm 3 m/s 734 mmHg 90%
    15:00 +15°C° 0.5 mm 4 m/s 734 mmHg 89%
    16:00 +15°C° 0.5 mm 4 m/s 734 mmHg 87%
    17:00 +15°C° 1.4 mm 5 m/s 735 mmHg 88%
    18:00 +15°C° 1.4 mm 6 m/s 735 mmHg 90%
    19:00 +14°C° 1.4 mm 6 m/s 735 mmHg 91%
    20:00 +14°C° 1 mm 6 m/s 735 mmHg 91%
    21:00 +14°C° 1 mm 7 m/s 736 mmHg 92%
    22:00 +14°C° 1 mm 7 m/s 736 mmHg 93%
    23:00 +14°C° 0.3 mm 7 m/s 737 mmHg 93%

    23 Mai, Joi

    Timp Temperatura Precipitaţii Vânt Presiune Umiditate
    00:00 +14°C° 0.3 mm 7 m/s 737 mmHg 94%
    01:00 +14°C° 0.3 mm 6 m/s 737 mmHg 94%
    02:00 +14°C° 0.6 mm 6 m/s 737 mmHg 94%
    03:00 +14°C° 0.6 mm 6 m/s 738 mmHg 95%
    04:00 +14°C° 0.6 mm 5 m/s 738 mmHg 95%
    05:00 +13°C° 1.1 mm 6 m/s 738 mmHg 94%
    06:00 +13°C° 1.1 mm 6 m/s 739 mmHg 94%
    07:00 +13°C° 1.1 mm 6 m/s 739 mmHg 94%
    08:00 +12°C° 1 mm 7 m/s 740 mmHg 94%
    09:00 +11°C° 1 mm 7 m/s 740 mmHg 93%
    10:00 +10°C° 1 mm 7 m/s 740 mmHg 93%
    11:00 +10°C° 0.2 mm 7 m/s 741 mmHg 92%
    12:00 +10°C° 0.2 mm 7 m/s 741 mmHg 92%
    13:00 +10°C° 0.2 mm 7 m/s 741 mmHg 91%
    14:00 +10°C° 0.1 mm 6 m/s 742 mmHg 90%
    15:00 +10°C° 0.1 mm 6 m/s 742 mmHg 89%
    16:00 +10°C° 0.1 mm 6 m/s 742 mmHg 88%
    17:00 +10°C° 0 mm 5 m/s 742 mmHg 87%
    18:00 +11°C° 0 mm 4 m/s 742 mmHg 86%
    19:00 +11°C° 0 mm 3 m/s 742 mmHg 85%
    20:00 +10°C° 0 mm 3 m/s 742 mmHg 84%
    21:00 +10°C° 0 mm 3 m/s 742 mmHg 84%
    22:00 +10°C° 0 mm 3 m/s 742 mmHg 84%
    23:00 +10°C° 0 mm 3 m/s 742 mmHg 84%

    24 Mai, Vineri

    Timp Temperatura Precipitaţii Vânt Presiune Umiditate
    00:00 +10°C° 0 mm 3 m/s 742 mmHg 84%
    01:00 +10°C° 0 mm 3 m/s 742 mmHg 84%
    02:00 +9°C° 0 mm 3 m/s 742 mmHg 85%
    03:00 +9°C° 0 mm 3 m/s 742 mmHg 86%
    04:00 +9°C° 0 mm 3 m/s 742 mmHg 87%
    05:00 +10°C° 0 mm 3 m/s 742 mmHg 83%
    06:00 +11°C° 0 mm 3 m/s 742 mmHg 78%
    07:00 +12°C° 0 mm 3 m/s 742 mmHg 74%
    08:00 +13°C° 0 mm 3 m/s 741 mmHg 68%
    09:00 +14°C° 0 mm 3 m/s 741 mmHg 62%
    10:00 +15°C° 0 mm 4 m/s 741 mmHg 56%
    11:00 +17°C° 0 mm 3 m/s 741 mmHg 54%
    12:00 +18°C° 0 mm 3 m/s 740 mmHg 52%
    13:00 +18°C° 0 mm 3 m/s 740 mmHg 50%
    14:00 +18°C° 0 mm 3 m/s 739 mmHg 51%
    15:00 +18°C° 0 mm 3 m/s 739 mmHg 53%
    16:00 +18°C° 0 mm 2 m/s 739 mmHg 54%
    17:00 +17°C° 0 mm 2 m/s 739 mmHg 59%
    18:00 +15°C° 0 mm 1 m/s 738 mmHg 65%
    19:00 +14°C° 0 mm 1 m/s 738 mmHg 71%
    20:00 +13°C° 0 mm 1 m/s 738 mmHg 72%
    21:00 +12°C° 0 mm 1 m/s 739 mmHg 74%
    22:00 +11°C° 0 mm 1 m/s 739 mmHg 76%
    23:00 +11°C° 0 mm 1 m/s 739 mmHg 78%

    25 Mai, Sâmbătă

    Timp Temperatura Precipitaţii Vânt Presiune Umiditate
    00:00 +10°C° 0 mm 1 m/s 739 mmHg 80%
    01:00 +10°C° 0 mm 1 m/s 738 mmHg 82%
    02:00 +9°C° 0 mm 1 m/s 738 mmHg 83%
    03:00 +9°C° 0 mm 1 m/s 738 mmHg 83%
    04:00 +8°C° 0 mm 0 m/s 738 mmHg 84%
    05:00 +10°C° 0 mm 1 m/s 738 mmHg 79%
    06:00 +12°C° 0 mm 1 m/s 738 mmHg 75%
    07:00 +14°C° 0 mm 1 m/s 738 mmHg 71%
    08:00 +16°C° 0 mm 1 m/s 738 mmHg 66%
    09:00 +18°C° 0 mm 1 m/s 738 mmHg 61%
    10:00 +20°C° 0 mm 1 m/s 738 mmHg 56%
    11:00 +21°C° 0 mm 1 m/s 738 mmHg 54%
    12:00 +22°C° 0 mm 1 m/s 738 mmHg 51%
    13:00 +22°C° 0 mm 1 m/s 737 mmHg 49%
    14:00 +23°C° 0 mm 1 m/s 737 mmHg 49%
    15:00 +23°C° 0 mm 1 m/s 737 mmHg 49%
    16:00 +23°C° 0 mm 1 m/s 737 mmHg 49%
    17:00 +21°C° 0 mm 1 m/s 737 mmHg 56%
    18:00 +20°C° 0 mm 1 m/s 737 mmHg 62%
    19:00 +18°C° 0 mm 1 m/s 737 mmHg 69%
    20:00 +16°C° 0 mm 2 m/s 738 mmHg 74%
    21:00 +15°C° 0 mm 2 m/s 738 mmHg 79%
    22:00 +14°C° 0 mm 2 m/s 738 mmHg 84%
    23:00 +13°C° 0 mm 3 m/s 738 mmHg 88%
    Arată mai mult